This is the latest recevied weather packets stored in our database for station/object M0JUI-1. If no packets are shown the sender has not sent any weather packets the latest 10 day(s).
| Time | Temp. | Humidity | Pressure | Rain* | Wind** | Luminosity | Snow |
|---|---|---|---|---|---|---|---|
| 1777789960 | 10.56° C | 6% | 1008.5 hPa | 0 mm | - | 48 W/m² | - |
| 1777789659 | 10° C | 6% | 1008.5 hPa | 0 mm | - | 57 W/m² | - |
| 1777789359 | 10° C | 6% | 1008.4 hPa | 0 mm | - | 46 W/m² | - |
| 1777789059 | 10° C | 5% | 1008.6 hPa | 0 mm | - | 30 W/m² | - |
| 1777788760 | 10° C | 5% | 1008.4 hPa | 0 mm | - | 20 W/m² | - |
| 1777788459 | 10° C | 5% | 1008.4 hPa | 0 mm | - | 16 W/m² | - |
| 1777788159 | 10° C | 5% | 1008.4 hPa | 0 mm | - | 17 W/m² | - |
| 1777787860 | 10° C | 5% | 1008.5 hPa | 0 mm | - | 13 W/m² | - |
| 1777787559 | 10° C | 5% | 1008.4 hPa | 0 mm | - | 8 W/m² | - |
| 1777787259 | 10° C | 4% | 1008.5 hPa | 0 mm | - | 6 W/m² | - |
| 1777786959 | 10.56° C | 4% | 1008.3 hPa | 0 mm | - | 5 W/m² | - |
| 1777786659 | 10.56° C | 4% | 1008.4 hPa | 0 mm | - | 4 W/m² | - |
| 1777786359 | 10° C | 4% | 1008.3 hPa | 0 mm | - | 3 W/m² | - |
| 1777786059 | 10.56° C | 4% | 1008.5 hPa | 0 mm | - | 3 W/m² | - |
| 1777785760 | 10.56° C | 4% | 1008.3 hPa | 0 mm | - | 2 W/m² | - |
| 1777785459 | 10° C | 3% | 1008.3 hPa | 0 mm | - | 0 W/m² | - |
| 1777785160 | 10.56° C | 3% | 1008.1 hPa | 0 mm | - | 0 W/m² | - |
| 1777784859 | 10° C | 3% | 1008.3 hPa | 0 mm | - | 0 W/m² | - |
| 1777784559 | 10° C | 3% | 1007.9 hPa | 0 mm | - | 0 W/m² | - |
| 1777784259 | 10° C | 3% | 1008 hPa | 0 mm | - | 0 W/m² | - |
| 1777783960 | 10° C | 2% | 1008 hPa | 0 mm | - | 0 W/m² | - |
| 1777783660 | 10° C | 2% | 1008 hPa | 0 mm | - | 0 W/m² | - |
| 1777783359 | 10° C | 2% | 1008 hPa | 0 mm | - | 0 W/m² | - |
| 1777783059 | 10° C | 2% | 1008.2 hPa | 0 mm | - | 0 W/m² | - |
| 1777782760 | 10.56° C | 2% | 1008 hPa | 0 mm | - | 0 W/m² | - |
* Rain latest hour (hover to see other rain measurements)
** Current wind speed in m/s (hover to see current wind gust speed)